Location: Taio
(46.3224°N, 11.0658°E)
Time: 17:34:05
(UTC+01:00)

ISS - Visible Passes

Search period start: 16 December 2017 00:00
Search period end: 26 December 2017 00:00
Orbit: 402 x 406 km, 51.6° (Epoch: 16 December)

Date Brightness Start Highest point End Pass type
(mag) Time Alt. Az. Time Alt. Az. Time Alt. Az.
16 Dec -3.3 17:03:57 10° WNW 17:07:13 63° SSW 17:10:28 10° SE visible
16 Dec -0.3 18:42:45 10° SW 18:43:07 10° SW 18:43:30 10° SW visible
17 Dec -0.8 17:48:49 10° W 17:51:08 18° SW 17:53:26 10° S visible
